Regional Weather Roundup
Issued by NWS Wakefield, VA

Home | Current Version | Previous Version | Text Only | Print | Product List | Glossary On
Versions: 1 2 3 4 5 6 7 8 9 10 11 12 13 14 15 16 17 18 19 20 21 22 23 24 25 26 27 28 29 30 31 32 33 34 35 36 37 38 39 40 41 42 43 44 45 46 47 48 49 50
000
ASUS41 KAKQ 280910
RWRAKQ

REGIONAL WEATHER ROUNDUP
NATIONAL WEATHER SERVICE WAKEFIELD VA
500 AM EDT THU AUG 28 2014

Note: "fair" indicates few or no clouds below 12,000 feet with no
significant weather and/or obstructions to visibility. * = Denotes
station may not report precipitation (e.g., rain,snow,etc.),
thunder or fog.

VAZ042-051-052>054-056-281000-
NORTHERN VIRGINIA

CITY           SKY/WX    TMP DP  RH WIND       PRES   REMARKS
WASH NATIONAL  CLEAR     77  68  73 NW7       29.91R
DULLES         PTCLDY    72  67  84 NW7       29.93R
FORT BELVOIR   CLEAR     76  69  77 NW6       29.91R
QUANTICO       CLEAR     76  68  76 N10       29.91R
FREDERICKSBRG* PTCLDY    73  68  87 W3        29.91R
STAFFORD*      PTCLDY    73  73 100 NW12      29.95S
WARRENTON      CLEAR     74  73  94 N3        29.92S
CULPEPER*      PTCLDY   N/A N/A N/A CALM      29.93S HAZE
MANASSAS*      CLEAR     75  72  88 N10       29.92R
LEESBURG*      CLEAR     73  70  88 N10       29.95R
WINCHESTER     CLEAR     72  64  78 N3        29.97R
$$

VAZ048-049-060>072-079>083-281000-
CENTRAL AND SOUTH CENTRAL VIRGINIA...AND NORTH CENTRAL NORTH CAROLINA

CITY           SKY/WX    TMP DP  RH WIND       PRES   REMARKS
RICHMOND       PTCLDY    74  64  71 NW3       29.91R
CHESTERFIELD*  PTSUNNY   70  55  60 NW6       29.94R
HANOVER        CLEAR     71  66  84 W5        29.94R
TAPPAHANNOCK*  CLEAR     71  63  76 W5        29.91R
CHARLOTTSVILLE MOCLDY    74  66  76 NW6       29.94S
ORANGE*        MOCLDY    70  66  88 CALM      29.95S
LOUISA*        MOCLDY    68  64  88 CALM      29.93S
FARMVILLE*     PTCLDY    64  64 100 CALM      29.92S
SOUTH HILL*    PTCLDY    70  68  94 CALM      29.99S
ROANOKE RAPIDS PTSUNNY   64  63  94 SW6       29.93S
RALEIGH        PTCLDY    66  62  87 CALM      29.97S
$$

VAZ088>098-281000-
SOUTHEAST VIRGINIA

CITY           SKY/WX    TMP DP  RH WIND       PRES   REMARKS
NORFOLK        MOCLDY    73  64  73 W6        29.89R
VIRGINIA BEACH PTCLDY    67  63  87 SW5       29.88S
NORFOLK NAVAL  MOCLDY    75  65  70 W5        29.90S
WEST POINT*    PTCLDY    72  67  83 W3        29.91S
NEWPORT NEWS   CLEAR     73  66  78 SW3       29.89S
LANGLEY AFB    PTCLDY    71  69  92 W6        29.88S
FORT EUSTIS    PTCLDY    73  67  80 NW3       29.88S
WILLIAMSBURG*  PTCLDY    73  66  78 NW7       29.91R
FRANKLIN*      PTCLDY    64  63  94 CALM      29.91S
WAKEFIELD      MOCLDY    70  63  78 W3        29.91S
$$

VAZ020-022-025-037-045-281000-
WESTERN AND SOUTHWEST VIRGINIA

CITY           SKY/WX    TMP DP  RH WIND       PRES   REMARKS
STAUNTON*      MOCLDY    66  63  90 CALM      30.01S FOG
HOT SPRINGS VA CLOUDY    63  63 100 NW6       30.14S FOG
LYNCHBURG      MOCLDY    65  65 100 CALM      29.98F
DANVILLE       PTCLDY    67  63  87 SW6       29.96F
MARTINSVILLE   CLEAR     63  63 100 CALM      30.02R
ROANOKE        MOCLDY    73  65  75 W7        30.02S
BLACKSBURG     MOCLDY    68  68 100 CALM      30.09R
DUBLIN*        MOCLDY    68  66  93 SW3       30.09S
MARION*        PTCLDY   N/A N/A N/A W7        30.13F
HILLSVILLE*    CLEAR     66  61  83 W6        30.10F
RICHLANDS*     SUNNY     69  64  83 NW3       30.12R
WISE*          CLEAR     66  63  88 SW3       30.13S
ABINGDON*      CLEAR     63  62  96 CALM      30.09F
$$

MDZ021>025-VAZ099-100-281000-
SOUTHERN MARYLAND AND THE DELMARVA PENINSULA

CITY           SKY/WX    TMP DP  RH WIND       PRES   REMARKS
PATUXENT RIVER PTCLDY    73  67  81 W7        29.87S
BAY BRIDGE APT   N/A     77  70  78 N10G16    29.88S
LEONARDTOWN    CLEAR     70  64  83 W5        29.90R
DOVER          CLEAR     72  70  93 NW7       29.85R
GEORGETOWN     CLEAR     72  67  84 VRB7      29.86R
EASTON         CLEAR     76  73  91 N7        29.90S
CAMBRIDGE      CLEAR     72  68  88 NW6       29.86R
SALISBURY      CLEAR     74  69  85 W5        29.85S
OCEAN CITY     PTCLDY    71  68  90 NW6       29.84S
WALLOPS ISLAND CLEAR     74  69  85 NW6       29.86S
ACCOMACK*      NOT AVBL
$$

NCZ012>017-030>032-281000-
EASTERN NORTH CAROLINA

CITY           SKY/WX    TMP DP  RH WIND       PRES   REMARKS
ELIZABETH CITY CLEAR     68  64  87 W7        29.91R
AHOSKIE*       PTCLDY    64  62  91 CALM      29.93S
EDENTON*       CLEAR     70  65  84 W6        29.92S
CURRITUCK*     CLEAR     68  63  83 SW5       29.91R
KILL DEVIL HLS CLEAR     74  71  89 W5        29.89S
MANTEO         CLEAR     72  67  86 W5        29.91S
CAPE HATTERAS  CLEAR     73  70  90 W7        29.92S
GOLDSBORO      CLEAR     66  65  97 W6        29.95R
WASHINGTON     CLEAR     66  62  85 CALM      29.94S
GREENVILLE     CLEAR     68  63  83 W3        29.96S
NEW BERN       CLEAR     67  61  81 SW3       29.96R
WILMINGTON     CLEAR     65  63  93 CALM      29.97R
$$

VAZ048-281000-
ELSEWHERE

CITY           SKY/WX    TMP DP  RH WIND       PRES   REMARKS
HARRISBURG PA  PTCLDY    71  60  68 NW9       29.93R
BALTIMORE      PTCLDY    75  66  73 VRB5      29.89S
ANNAPOLIS        N/A     77  68  73 N10       29.88R
ANDREWS AFB    CLEAR     75  69  81 N8        29.91R
WILMINGTON DE  MOCLDY    74  67  78 N6        29.89R
PHILADELPHIA   PTCLDY    76  63  64 N9        29.87R
WILDWOOD NJ*   PTCLDY    73  66  78 N8        29.85S
ATLANTIC CITY  CLEAR     71  67  87 MISG      29.84R
HENDERSON NC   CLEAR     67  61  80 SW5       29.96S
GREENSBORO     CLEAR     70  63  78 CALM      29.99S
ROCKY MOUNT    CLEAR     65  62  90 SW3       29.95S
FAYETTEVILLE   CLEAR     66  60  81 W5        29.97S
CHARLOTTE      CLEAR     65  60  84 CALM      30.01S
$$

VAZ100-281000-
MARINE

STATION/POSITION TIME  TEMP    WIND        PRES    WAVE   SWELL
                       AIR SEA DIR/SP/G            HT/PER HT/PER
                 (UTC) (F)     (DEG/KT/KT) (MB)    (FT/S) (FT/S)
44066 TX TWR #4  0900   72 74  270/  6/  8 1009.3S   8/14   8/14
CAPE MAY NJ      0900   76 80  340/  8/ 12 1009.9S
LEWES DE         0900   75 77  300/ 10/ 13 1010.3S
15NM E FENWICK I 0900   75 74              1010.0F   4/14
OCEAN-CITY-INLET 0900   73 76  310/  8/ 11 1010.0F
WACHAPREAGUE VA  0900   71 79  270/  2/  3 1011.3R
THOMAS POINT MD  0900   77 78  360/ 13/ 15 1012.6R
GOOSES REEF MD   0900   78     350/ 14/ 16 1011.7S
COVE POINT MD    0900   77     350/ 18/ 20 1011.2R
SOLOMONS ISLAND  0900      80                N/A
BISHOPS HEAD MD  0900   78 79  310/  9/ 12 1010.7S
PINEY POINT MD   0900          330/ 15/ 18   N/A
POTOMAC MD       0900   78     310/ 12/ 14 1010.7S
CAMBRIDGE MD     0900   78 79  310/  5/  6 1010.9R
LEWISETTA VA     0900   74 79  300/  7/ 10 1011.4R
RAPPAHANNOCK LGT 0900          270/ 12/ 12 1011.9R
STINGRAY PT      0900   76     290/ 12/ 14   N/A
YORK RVR RNG VA  0900   76     310/  9/ 11 1011.3R
YORKTOWN VA      0900   75 79  280/  8/  9 1011.6S
JAMESTOWN VA     0900   75     310/  8/ 10   N/A
DOMINION TERM VA 0900   73     270/  7/  8 1012.3S
KIPTOPEKE VA     0900      80  290/  7/  9   N/A
CHES BAY BRIDGE  0900   75 78  240/ 10/ 11 1011.5R
CAPE HENRY VA    0900   71     250/  7/  9 1010.7S
CHESAPEAKE LGHT  0800   75     260/ 11/ 11 1012.5F
WILLOUBY STN VA  0900   74     290/  7/  9 1010.8S
S CRANEY ISL VA  0900          230/  4/  6 1012.0S
CAPE HENRY BUOY  0900      76                N/A     4/12   2/12
1ST LANDING BUOY 0900   76     270/ 10/ 12 1011.7S
CAPE CHARLES BUO 0900      76                N/A     4/13   3/13
OFFSHORE WE BUOY 0900      75                N/A     4/11   5/11
64NM E OF VA BCH 0900   75 74  280/  8/ 12 1011.2S   6/11   7/11
DUCK PIER NC     0900   75 76  270/ 10/ 13 1011.6S
44056 DUCK FRF   0900                        N/A     4/11   3/11
OREGON INLET NC  0900   73 78  270/  8/ 10 1012.7R
HATTERAS NC      0900   77 79  280/ 11/ 13 1013.5R
DIAMOND SHLS NC  0900   76     280/ 14/ 17 1012.7R   6/10   5/10
CAPE LOOKOUT NC  0800   75     290/  6/  7 1013.6R
$$


USA.gov is the U.S. government's official web portal to all federal, state and local government web resources and services.